Temp
-3 -3 -3 -4 -5 -7 -8 -7 -6 -6 -7 -6 -8 -8 -7 -6 -6 -5 -5 -5 -5 -5 -6 -5 -5 -5 -5 -5 -5 -5 -6 -6 -6 -6 -6 -6 -7 -7 -6 -6 -7 -7 -7 -7
-4 -3 -4 -5 -6 -6 -8 -7 -6 -6 -7 -7 -7 -7 -7 -7 -6 -5 -5 -5 -5 -5 -5 -5 -5 -5 -5 -5 -5 -5 -5 -6 -6 -6 -6 -6 -7 -7 -6 -7 -6 -7 -7 -7
-4 -4 -4 -5 -6 -7 -8 -7 -7 -6 -6 -6 -7 -6 -7 -7 -7 -6 -6 -5 -5 -5 -5 -5 -5 -5 -5 -5 -5 -5 -5 -6 -6 -6 -6 -6 -6 -6 -6 -6 -7 -7 -7 -7
-4 -5 -4 -5 -5 -6 -8 -8 -7 -6 -7 -6 -7 -6 -6 -7 -7 -6 -6 -6 -5 -5 -6 -6 -6 -5 -5 -5 -5 -5 -5 -6 -6 -6 -6 -6 -6 -6 -6 -6 -7 -7 -7 -7
-4 -4 -4 -4 -4 -5 -7 -8 -8 -7 -6 -6 -6 -6 -6 -6 -7 -7 -6 -6 -5 -5 -5 -6 -6 -6 -6 -5 -5 -5 -5 -5 -6 -6 -6 -6 -7 -7 -7 -7 -7 -7 -7 -7
-4 -4 -5 -4 -5 -5 -6 -8 -8 -7 -7 -6 -6 -6 -6 -6 -6 -6 -7 -6 -5 -5 -6 -6 -6 -7 -7 -6 -6 -5 -5 -6 -6 -6 -6 -7 -7 -7 -7 -7 -7 -7 -7 -7
-4 -4 -4 -5 -5 -5 -6 -8 -8 -7 -7 -6 -6 -6 -6 -5 -6 -7 -7 -7 -7 -6 -6 -6 -7 -6 -7 -6 -6 -6 -6 -6 -5 -6 -6 -7 -7 -7 -7 -7 -7 -8 -7 -7
-5 -4 -4 -4 -4 -5 -6 -7 -8 -7 -6 -6 -6 -6 -6 -6 -6 -7 -7 -7 -7 -7 -6 -7 -7 -7 -7 -6 -6 -6 -6 -6 -6 -6 -6 -7 -7 -7 -7 -8 -8 -7 -7 -7
-5 -4 -5 -4 -5 -6 -7 -7 -7 -7 -6 -6 -6 -6 -6 -6 -7 -7 -7 -7 -7 -7 -7 -7 -7 -7 -7 -7 -6 -6 -6 -6 -7 -7 -7 -7 -7 -7 -8 -8 -8 -7 -7 -8
-5 -7 -7 -5 -7 -5 -7 -7 -8 -8 -7 -6 -5 -5 -5 -6 -7 -7 -7 -7 -7 -8 -7 -7 -7 -7 -7 -7 -7 -7 -7 -7 -7 -7 -7 -8 -8 -8 -8 -8 -7 -7 -8 -8
-6 -6 -8 -9 -4 -4 -5 -6 -8 -8 -7 -7 -6 -5 -6 -6 -7 -7 -7 -7 -7 -8 -7 -7 -7 -7 -7 -7 -7 -7 -7 -7 -7 -7 -8 -8 -8 -8 -8 -8 -8 -7 -8 -9
-6 -6 -6 -7 -8 -8 -9 -8 -8 -8 -8 -7 -6 -5 -6 -7 -7 -8 -7 -7 -7 -7 -7 -7 -7 -7 -7 -7 -7 -7 -7 -6 -7 -7 -8 -8 -8 -8 -8 -8 -8 -8 -8 -9
-8 -6 -7 -8 -9 -8 -6 -6 -8 -8 -8 -8 -7 -6 -7 -7 -7 -7 -8 -7 -7 -8 -8 -7 -7 -7 -7 -7 -7 -7 -7 -6 -6 -6 -7 -8 -8 -7 -7 -8 -8 -8 -8 -9
-9 -10 -7 -8 -7 -9 -9 -8 -9 -8 -8 -8 -8 -7 -7 -7 -8 -8 -8 -8 -8 -8 -7 -7 -7 -7 -7 -7 -7 -7 -7 -7 -6 -7 -7 -7 -7 -7 -8 -8 -8 -8 -8 -9
-9 -9 -10 -7 -10 -10 -9 -9 -9 -9 -9 -8 -8 -8 -7 -7 -8 -8 -8 -7 -7 -8 -7 -7 -7 -7 -7 -7 -7 -8 -7 -7 -7 -7 -6 -7 -7 -8 -8 -8 -8 -8 -9 -9
-9 -10 -11 -11 -10 -10 -10 -9 -9 -10 -9 -9 -9 -8 -8 -8 -8 -8 -8 -7 -7 -8 -8 -7 -7 -7 -7 -7 -7 -8 -8 -7 -7 -7 -6 -7 -7 -8 -8 -8 -8 -8 -9 -9
-11 -12 -12 -11 -11 -10 -10 -9 -10 -10 -9 -10 -9 -8 -9 -9 -8 -8 -8 -8 -7 -6 -7 -7 -7 -7 -7 -8 -8 -8 -7 -7 -7 -7 -7 -7 -8 -8 -8 -9 -9 -9 -9 -9
-13 -13 -12 -11 -11 -11 -8 -10 -10 -10 -10 -10 -10 -10 -9 -9 -8 -9 -9 -9 -7 -6 -7 -8 -7 -8 -7 -8 -8 -8 -7 -7 -7 -7 -8 -8 -8 -9 -9 -9 -9 -9 -9 -10
-11 -11 -12 -12 -11 -9 -10 -10 -10 -10 -10 -10 -10 -10 -10 -10 -9 -9 -8 -7 -8 -7 -8 -8 -8 -8 -8 -8 -8 -8 -7 -7 -7 -8 -8 -8 -8 -9 -9 -9 -9 -9 -10 -9
-12 -11 -11 -12 -12 -11 -10 -10 -10 -10 -9 -10 -10 -10 -10 -10 -9 -9 -9 -6 -6 -7 -8 -8 -8 -8 -8 -8 -8 -8 -8 -8 -8 -8 -9 -8 -9 -9 -9 -9 -9 -9 -10 -9
-12 -12 -11 -12 -12 -11 -11 -10 -10 -11 -11 -11 -10 -10 -11 -10 -10 -10 -9 -7 -8 -7 -8 -8 -8 -8 -8 -8 -8 -8 -8 -9 -9 -9 -9 -9 -9 -9 -9 -9 -10 -10 -10 -9
-12 -12 -11 -13 -13 -12 -11 -11 -11 -11 -10 -11 -11 -10 -10 -11 -11 -10 -9 -8 -8 -8 -8 -8 -8 -8 -8 -8 -8 -8 -9 -9 -9 -9 -9 -9 -9 -9 -9 -9 -10 -10 -10 -9
-13 -12 -12 -13 -13 -13 -13 -12 -10 -11 -11 -11 -11 -11 -11 -10 -9 -10 -10 -9 -9 -8 -8 -8 -8 -8 -8 -8 -8 -8 -8 -9 -9 -9 -9 -9 -9 -9 -9 -9 -9 -10 -10 -10
-14 -14 -14 -12 -12 -12 -12 -12 -11 -11 -11 -11 -11 -11 -11 -10 -10 -10 -10 -9 -9 -8 -8 -8 -8 -8 -8 -8 -8 -8 -8 -9 -9 -9 -9 -10 -9 -9 -9 -9 -10 -11 -10 -10
-11 -13 -14 -13 -12 -11 -11 -11 -11 -11 -10 -10 -11 -11 -10 -10 -10 -10 -9 -9 -9 -8 -8 -8 -8 -8 -8 -8 -8 -8 -8 -9 -10 -9 -10 -10 -10 -10 -10 -10 -10 -10 -10 -10
-11 -12 -10 -12 -11 -11 -11 -11 -11 -11 -10 -10 -11 -11 -10 -10 -10 -10 -9 -9 -9 -8 -8 -8 -8 -8 -8 -8 -8 -9 -9 -9 -9 -9 -10 -9 -10 -10 -10 -10 -10 -10 -11 -11
Height
5871 5872 5873 5879 5884 5889 5898 5905 5907 5908 5903 5903 5905 5906 5905 5905 5905 5905 5904 5905 5906 5907 5907 5909 5910 5910 5912 5914 5914 5915 5916 5918 5918 5919 5920 5920 5921 5921 5922 5923 5923 5923 5923 5922
5865 5867 5874 5878 5882 5885 5891 5900 5904 5906 5903 5901 5907 5908 5910 5904 5904 5904 5904 5904 5905 5906 5908 5908 5909 5910 5911 5912 5913 5914 5915 5917 5917 5918 5919 5920 5920 5920 5921 5921 5921 5922 5921 5919
5859 5869 5870 5872 5876 5880 5885 5892 5901 5906 5900 5897 5906 5902 5907 5906 5903 5903 5903 5904 5904 5904 5906 5907 5908 5909 5910 5911 5911 5912 5914 5915 5916 5917 5918 5918 5919 5920 5920 5919 5919 5918 5918 5917
5852 5859 5863 5865 5870 5876 5879 5885 5893 5901 5894 5896 5899 5905 5901 5905 5903 5902 5901 5902 5903 5903 5904 5905 5906 5907 5908 5908 5909 5910 5912 5913 5914 5914 5916 5916 5917 5918 5917 5916 5916 5915 5914 5913
5849 5851 5856 5859 5865 5871 5876 5884 5888 5893 5897 5892 5897 5900 5900 5899 5901 5899 5900 5900 5901 5902 5903 5903 5904 5905 5905 5905 5906 5907 5909 5910 5910 5912 5913 5914 5914 5914 5913 5913 5911 5910 5908 5907
5841 5843 5847 5854 5859 5864 5874 5878 5883 5886 5890 5888 5893 5894 5897 5889 5899 5901 5899 5897 5898 5898 5899 5900 5901 5901 5902 5902 5903 5904 5906 5906 5907 5909 5910 5910 5910 5910 5910 5908 5907 5906 5904 5902
5834 5836 5840 5844 5848 5855 5862 5868 5872 5876 5878 5879 5889 5889 5886 5896 5896 5894 5897 5897 5895 5896 5896 5897 5898 5899 5899 5899 5899 5900 5901 5903 5904 5905 5906 5906 5906 5906 5905 5904 5903 5901 5900 5898
5825 5828 5831 5837 5839 5846 5851 5858 5862 5865 5872 5878 5881 5879 5885 5889 5889 5892 5892 5894 5893 5889 5892 5894 5896 5896 5896 5896 5896 5896 5896 5897 5899 5900 5902 5902 5901 5901 5902 5900 5898 5896 5897 5896
5816 5820 5823 5826 5831 5834 5843 5844 5859 5866 5869 5871 5874 5877 5878 5877 5881 5884 5885 5887 5890 5883 5887 5890 5891 5892 5893 5893 5892 5891 5891 5892 5894 5895 5896 5897 5896 5896 5896 5896 5895 5897 5897 5895
5809 5811 5813 5817 5819 5824 5828 5845 5847 5849 5856 5861 5867 5871 5872 5872 5871 5874 5878 5881 5881 5880 5882 5884 5886 5887 5888 5889 5889 5888 5888 5888 5889 5890 5891 5891 5891 5892 5892 5893 5895 5894 5893 5892
5797 5801 5807 5808 5810 5817 5819 5824 5835 5844 5849 5852 5859 5863 5869 5867 5863 5865 5871 5876 5879 5875 5876 5879 5881 5882 5883 5884 5886 5886 5885 5884 5884 5885 5885 5886 5887 5888 5889 5891 5891 5891 5891 5890
5785 5790 5793 5799 5803 5805 5809 5816 5825 5831 5836 5841 5849 5856 5863 5861 5860 5862 5866 5871 5874 5871 5872 5874 5875 5876 5879 5880 5881 5882 5881 5880 5880 5880 5880 5882 5884 5886 5887 5887 5888 5889 5887 5886
5773 5777 5783 5787 5794 5795 5795 5802 5811 5821 5830 5828 5836 5843 5854 5854 5855 5857 5858 5862 5866 5865 5863 5869 5871 5870 5874 5876 5877 5877 5876 5876 5876 5876 5877 5880 5882 5883 5884 5884 5884 5884 5884 5882
5759 5766 5771 5778 5785 5792 5790 5792 5799 5810 5813 5819 5821 5837 5844 5847 5845 5847 5850 5854 5858 5861 5860 5863 5865 5866 5868 5871 5872 5873 5872 5873 5872 5874 5875 5876 5878 5879 5878 5879 5878 5879 5879 5878
5747 5754 5762 5768 5774 5781 5785 5786 5791 5794 5802 5807 5818 5824 5832 5839 5841 5842 5844 5845 5849 5853 5854 5856 5859 5860 5863 5864 5866 5867 5868 5868 5869 5871 5872 5873 5874 5874 5874 5873 5872 5871 5873 5872
5735 5743 5751 5756 5763 5767 5773 5780 5782 5784 5789 5795 5803 5808 5821 5828 5831 5832 5833 5836 5839 5843 5847 5849 5851 5852 5856 5858 5860 5862 5862 5862 5863 5866 5867 5869 5870 5868 5867 5867 5867 5865 5865 5862
5723 5731 5739 5745 5753 5760 5763 5764 5770 5776 5780 5783 5787 5791 5806 5810 5816 5822 5825 5826 5829 5834 5838 5840 5843 5845 5848 5851 5853 5854 5856 5857 5859 5860 5862 5863 5864 5864 5862 5860 5859 5858 5856 5853
5709 5717 5727 5737 5746 5747 5751 5757 5761 5765 5770 5774 5778 5783 5789 5792 5799 5805 5813 5816 5818 5824 5828 5831 5834 5836 5839 5843 5845 5846 5849 5850 5853 5855 5855 5856 5856 5856 5855 5853 5852 5851 5848 5844
5697 5705 5716 5726 5733 5737 5743 5742 5747 5748 5755 5765 5768 5771 5776 5781 5785 5788 5797 5805 5809 5815 5821 5822 5826 5829 5831 5835 5838 5839 5841 5844 5847 5849 5849 5849 5849 5848 5847 5846 5844 5842 5838 5833
5687 5697 5705 5717 5721 5728 5739 5726 5736 5742 5743 5753 5756 5760 5766 5771 5776 5779 5783 5789 5797 5807 5811 5812 5818 5821 5825 5828 5831 5833 5835 5837 5839 5840 5841 5842 5841 5841 5840 5837 5835 5833 5828 5823
5675 5683 5691 5701 5709 5720 5719 5724 5728 5733 5740 5739 5742 5747 5751 5759 5767 5767 5770 5777 5785 5794 5799 5805 5809 5814 5819 5821 5824 5826 5828 5830 5832 5832 5833 5833 5833 5832 5830 5828 5825 5822 5817 5811
5667 5675 5683 5694 5702 5708 5708 5713 5719 5721 5724 5729 5734 5738 5743 5749 5749 5750 5759 5767 5775 5782 5789 5796 5801 5806 5810 5814 5817 5820 5821 5823 5824 5824 5825 5825 5824 5822 5820 5817 5813 5809 5804 5801
5661 5666 5679 5691 5696 5693 5698 5704 5711 5715 5717 5719 5724 5728 5731 5734 5736 5744 5751 5758 5766 5772 5778 5784 5790 5796 5801 5804 5807 5811 5813 5814 5815 5815 5815 5815 5813 5811 5808 5804 5800 5796 5793 5788
5656 5665 5671 5680 5678 5681 5687 5696 5702 5705 5707 5710 5715 5718 5722 5726 5729 5735 5742 5748 5755 5761 5768 5774 5780 5785 5790 5794 5797 5800 5802 5804 5804 5803 5803 5801 5801 5798 5796 5792 5788 5784 5780 5776
5639 5646 5662 5658 5661 5673 5681 5689 5693 5694 5697 5701 5704 5706 5713 5718 5721 5727 5733 5739 5746 5754 5761 5766 5771 5776 5781 5784 5786 5788 5790 5791 5792 5793 5791 5791 5787 5785 5782 5778 5775 5771 5768 5764
5623 5637 5644 5651 5659 5667 5675 5680 5683 5685 5688 5693 5699 5701 5705 5710 5715 5722 5728 5734 5740 5745 5752 5757 5761 5766 5770 5773 5776 5777 5779 5780 5781 5780 5780 5777 5775 5772 5769 5765 5763 5760 5758 5754
Wind_Speed
30 31 26 25 26 23 18 17 18 16 23 25 20 18 15 14 13 12 11 10 9 9 9 9 10 10 10 11 11 11 10 9 9 9 8 6 4 5 5 6 6 5 7 9
36 34 29 28 30 28 24 23 20 15 30 22 20 17 17 18 13 12 14 13 10 8 8 8 9 11 13 13 13 13 12 10 11 10 9 9 8 8 7 8 9 9 9 12
33 32 33 34 35 34 30 27 23 21 28 18 22 19 22 26 17 15 15 14 13 12 9 9 9 11 12 13 15 15 13 12 12 12 10 10 9 9 10 11 12 12 14 17
28 33 39 40 37 34 33 29 25 24 33 27 25 21 27 24 24 20 18 16 14 13 12 12 13 13 14 15 14 14 14 14 14 13 13 14 12 13 14 15 17 18 19 22
22 29 37 43 40 38 35 28 28 27 30 30 24 27 24 24 23 26 21 17 16 18 19 17 15 15 13 14 15 16 15 16 17 16 15 15 15 17 18 20 22 23 25 24
24 26 33 39 43 43 32 31 30 30 31 35 32 32 29 34 23 29 25 23 23 22 21 21 21 14 13 15 16 18 18 19 20 19 18 18 18 19 22 24 24 23 23 24
25 26 28 37 45 45 44 37 34 36 37 40 30 37 34 26 29 25 23 24 27 25 24 23 22 19 17 13 15 18 19 19 21 20 20 20 20 21 21 23 22 23 25 27
32 31 30 31 39 45 51 46 42 40 34 34 32 37 35 32 27 23 24 22 25 32 27 23 18 19 18 17 16 15 16 21 21 22 22 20 21 20 22 21 23 25 25 25
35 34 30 30 35 46 47 55 43 35 30 32 30 31 31 25 32 33 32 26 26 36 24 23 16 15 11 13 15 15 17 18 20 22 22 20 21 22 20 19 18 19 21 22
36 35 33 32 35 41 51 43 48 48 44 38 33 31 27 31 33 30 30 26 26 27 25 26 22 18 12 12 10 10 12 18 19 22 20 21 20 19 17 16 19 19 16 27
36 38 31 31 38 38 47 57 47 45 45 43 38 33 31 26 22 26 26 20 24 26 22 21 16 14 16 18 15 13 16 17 18 19 19 18 17 15 15 13 14 16 19 21
41 38 41 36 33 35 39 44 54 47 51 47 42 36 27 30 26 27 29 25 19 25 27 22 22 21 18 19 18 21 18 16 18 19 21 20 16 13 12 16 19 19 17 22
39 41 38 38 32 36 42 42 47 54 44 50 48 45 33 25 28 28 29 31 21 23 25 28 28 30 24 17 17 19 18 16 17 21 19 17 15 15 18 20 19 17 22 21
44 36 41 37 36 30 33 40 44 47 57 53 52 41 35 35 37 34 37 28 30 30 33 31 29 30 28 21 20 20 18 19 17 18 18 18 16 17 19 17 19 24 21 28
46 44 37 40 33 25 32 34 40 48 49 55 48 44 42 40 37 33 31 41 36 31 35 28 30 26 25 23 24 23 20 22 22 19 17 17 14 16 20 21 25 30 28 33
47 44 38 39 31 34 31 32 37 38 47 51 50 49 43 43 37 33 35 41 43 32 30 34 31 31 27 28 26 25 24 25 25 19 18 18 16 18 23 27 31 36 38 40
48 41 37 38 34 31 34 39 37 38 40 42 52 55 46 47 46 46 48 47 45 35 32 34 33 27 30 30 31 32 30 28 27 22 18 22 21 27 30 33 36 41 44 47
44 46 40 36 32 35 39 32 32 36 38 39 42 39 39 49 57 49 40 41 40 38 36 34 31 28 34 32 33 35 35 33 27 27 27 28 29 32 35 38 41 44 48 50
58 54 43 36 37 36 34 28 34 37 38 37 37 39 35 35 36 49 59 55 41 46 30 38 32 32 33 35 33 34 36 34 33 33 35 30 31 35 40 42 43 48 53 57
57 53 47 35 41 41 31 40 28 36 45 41 40 33 37 34 28 35 40 52 52 43 39 41 35 34 37 34 34 35 37 35 33 32 32 33 35 38 41 44 45 50 59 60
59 57 55 50 38 33 41 40 33 37 31 31 39 41 35 39 34 38 43 40 42 40 46 43 38 35 39 38 37 35 36 36 37 39 40 39 40 45 45 45 49 52 58 62
57 58 56 45 42 41 42 40 39 40 38 34 31 29 44 37 47 52 43 41 39 39 49 47 42 39 38 40 40 40 40 42 43 45 46 44 47 49 47 49 49 53 53 61
54 58 52 35 36 45 47 46 36 33 33 28 27 34 40 40 43 38 35 34 36 40 46 49 46 40 37 34 30 36 44 47 47 46 46 49 48 48 50 52 54 56 56 54
48 41 42 39 48 49 48 40 35 34 32 30 33 34 35 34 35 39 39 37 35 43 48 50 48 47 44 42 41 38 39 47 51 52 50 46 45 50 54 54 57 52 51 53
38 50 45 58 60 53 51 39 29 31 33 33 34 36 34 35 41 39 37 39 37 42 47 43 45 46 48 48 48 48 49 48 47 51 50 50 54 54 56 55 54 47 48 46
31 43 30 37 49 47 39 33 30 30 34 39 40 34 38 34 36 40 42 40 39 35 39 41 42 47 49 50 50 49 48 47 46 51 47 53 55 59 55 56 48 43 46 46
Wind_Direction
227 232 224 216 217 200 202 215 222 216 247 236 220 198 235 228 225 211 190 189 188 179 182 198 205 206 210 215 224 232 241 248 246 255 268 263 264 256 257 272 300 304 322 315
229 229 231 218 215 210 201 212 221 228 227 219 219 228 233 243 229 217 205 192 189 198 204 205 213 221 225 226 232 242 245 238 244 254 263 250 254 259 265 273 284 290 294 304
237 234 234 225 216 216 215 207 215 216 245 204 215 221 233 238 226 207 203 206 201 202 215 232 232 230 232 233 235 243 247 246 251 259 260 250 253 265 268 269 276 282 292 302
239 227 228 234 226 216 218 211 205 214 227 216 231 225 230 241 244 230 213 213 218 219 224 233 241 245 242 243 244 240 235 239 242 246 250 250 254 264 271 276 282 285 289 295
252 235 228 232 235 227 217 216 213 214 227 253 222 236 243 214 242 264 234 222 226 232 236 234 240 249 249 249 244 243 241 242 243 245 246 255 266 273 280 285 286 290 294 296
246 239 226 230 233 231 220 214 219 224 221 231 227 232 223 252 207 238 254 241 238 239 238 238 237 239 253 253 249 246 241 241 244 249 251 259 265 275 282 286 290 293 296 298
247 248 240 225 228 229 219 214 218 220 226 230 227 232 236 219 237 256 232 245 270 247 237 241 245 246 247 251 256 254 250 253 255 251 252 258 267 273 279 289 286 291 299 302
251 243 243 235 233 226 223 217 218 222 224 231 230 229 236 240 227 228 232 237 251 265 242 247 264 270 264 250 258 262 251 247 249 247 252 261 267 272 284 278 284 295 306 309
252 250 238 241 232 228 219 221 219 225 236 235 236 244 238 229 231 238 236 238 240 257 237 249 247 256 259 267 272 261 250 244 242 241 249 259 266 277 277 283 289 308 334 342
246 241 248 239 234 230 221 223 218 219 224 229 234 232 242 242 241 226 231 228 237 240 243 245 260 248 274 281 295 291 274 258 245 239 244 255 262 264 269 278 309 328 335 1
238 240 234 229 239 238 227 216 221 228 227 228 232 233 235 242 234 223 224 228 238 244 245 250 235 250 266 273 280 289 281 271 255 234 235 241 246 257 282 315 338 339 4 347
241 237 240 239 232 240 228 225 219 222 225 229 228 232 238 224 246 217 201 206 223 256 257 241 247 255 259 277 283 288 269 269 247 226 229 232 241 270 290 322 338 348 358 357
232 233 232 236 227 230 239 229 222 225 228 231 230 230 212 232 229 229 229 212 198 232 238 237 244 257 264 265 275 279 266 257 240 237 236 242 256 285 301 316 329 355 2 353
225 226 231 235 245 229 237 238 220 222 228 232 231 228 224 233 243 231 231 215 215 227 236 238 245 248 252 254 263 274 258 253 250 256 263 276 289 308 309 307 321 341 336 333
227 229 227 232 210 229 226 230 228 223 227 230 233 233 230 231 231 242 241 228 221 237 237 233 232 233 242 247 253 263 260 253 258 269 289 292 293 308 323 333 337 333 328 322
226 226 219 223 227 224 220 228 235 236 229 234 234 231 228 229 222 231 241 235 225 224 241 239 236 237 233 242 254 260 258 259 261 277 288 289 297 296 316 325 322 320 318 316
220 220 220 224 223 227 236 229 227 233 237 236 233 237 233 227 227 238 241 242 236 236 235 243 244 234 233 241 254 259 264 262 260 264 274 299 304 300 305 307 310 311 314 315
208 218 213 216 224 226 238 229 240 241 239 239 238 238 237 238 224 223 231 239 246 237 236 237 239 236 234 238 249 257 264 265 267 258 266 299 309 307 306 307 305 307 307 303
217 220 221 213 219 228 233 233 230 222 226 235 243 243 233 236 238 235 233 244 245 252 224 233 231 239 237 236 246 256 263 264 265 264 272 286 299 303 300 300 303 301 301 298
221 223 221 220 217 222 219 249 236 237 231 226 223 232 228 237 231 231 227 233 242 241 225 226 225 232 240 243 246 253 259 266 271 276 277 284 288 294 296 298 297 300 303 305
216 216 219 222 219 226 232 232 238 231 240 240 236 229 216 231 221 231 229 233 232 233 216 219 224 234 233 239 243 253 261 266 268 271 275 281 287 292 294 294 295 299 298 304
215 217 219 221 224 223 230 236 235 232 233 244 253 248 224 218 228 227 227 227 224 226 214 218 222 229 235 242 242 247 255 261 266 271 276 280 283 286 288 287 291 293 293 298
217 218 218 221 234 231 233 237 240 234 246 251 239 238 232 234 241 233 228 227 224 219 212 217 220 229 232 235 243 249 252 256 259 266 269 273 278 285 284 290 294 294 293 296
211 212 213 212 225 225 234 243 249 253 245 249 236 230 229 233 223 219 225 224 214 212 216 217 221 228 234 241 245 251 254 256 257 260 263 269 282 278 286 290 295 291 292 295
203 197 201 212 221 227 234 246 254 250 241 236 235 219 222 222 219 217 217 215 218 216 216 220 223 228 234 238 243 247 252 254 258 263 264 278 281 281 283 285 288 287 289 290
192 181 188 214 227 232 238 244 246 249 238 239 228 229 220 221 225 222 219 220 218 218 220 219 224 225 230 236 242 245 247 257 260 262 276 276 279 286 285 284 281 285 289 293